Temperature
30 26 25 26 27 28 28 28 28 29 29 28 27 26 26 26 26 25 25 24 24 24 24 24 23 23 22 22 22 21 21 21 20 20 20 19 19 19 19 19 19 19 19 18
26 26 27 28 29 29 29 28 28 29 30 29 27 26 26 26 26 26 25 24 24 24 24 24 23 23 22 22 22 21 21 21 20 20 20 20 19 19 19 19 19 18 18 18
26 27 29 30 30 29 29 28 29 29 28 28 27 26 26 26 26 26 26 25 25 25 24 24 23 23 23 22 22 22 21 21 21 20 20 19 19 19 19 19 19 19 18 18
26 28 29 30 30 30 28 29 30 30 27 25 26 24 25 25 25 25 26 25 25 25 25 24 24 23 23 23 22 22 22 21 21 20 20 20 20 20 19 19 19 19 19 18
26 28 29 29 30 30 29 30 30 29 27 25 25 24 24 24 24 25 25 26 26 25 25 25 24 24 24 23 23 22 22 21 21 20 20 20 20 20 19 19 19 19 19 18
27 28 29 30 30 31 30 29 27 24 23 24 25 24 24 23 24 25 25 26 26 26 25 25 25 24 24 23 23 22 22 22 21 21 20 20 20 20 19 19 19 19 19 19
26 27 29 30 29 29 28 25 24 24 22 23 24 25 23 25 26 26 26 26 26 26 25 25 24 24 24 24 23 23 22 22 21 21 21 20 20 20 19 19 19 19 19 19
25 25 27 29 29 28 27 24 23 24 23 23 24 25 25 27 27 28 27 27 26 26 26 25 25 25 24 24 24 23 23 22 22 21 21 20 20 20 19 19 19 19 19 19
24 25 27 29 29 29 28 25 23 22 23 23 23 24 26 27 27 27 27 26 26 26 26 26 25 25 25 24 24 23 23 23 22 22 21 20 20 20 20 19 19 19 19 19
24 25 26 28 29 28 27 26 21 22 23 23 24 24 24 26 26 26 25 25 25 26 26 26 26 25 25 25 24 24 23 23 23 22 21 21 20 20 20 19 19 19 19 19
23 23 25 26 27 27 28 27 23 20 21 22 23 24 25 25 25 25 25 25 25 25 26 26 26 26 25 25 24 24 23 23 23 22 21 21 20 20 20 20 19 19 19 19
22 21 22 24 26 27 27 26 23 23 23 20 22 23 26 26 25 25 25 25 25 26 26 26 25 25 24 24 24 24 23 23 23 22 21 21 20 20 20 20 20 19 19 19
22 20 21 23 23 25 26 26 23 21 20 20 22 24 25 25 25 25 25 25 25 25 25 25 25 25 25 24 24 24 23 23 23 22 22 21 21 20 20 20 20 19 19 19
22 19 21 22 22 23 25 26 25 22 21 22 22 24 24 24 24 24 25 24 25 25 25 25 24 24 24 24 24 24 23 23 23 22 22 22 21 21 20 20 20 19 19 19
19 19 21 22 23 25 26 26 26 25 23 23 23 23 23 23 23 24 25 24 24 24 24 25 24 24 24 24 24 24 23 23 23 22 22 22 21 21 20 20 20 19 19 19
17 19 20 21 23 24 25 25 26 26 25 24 24 23 23 23 24 24 24 23 23 23 24 24 24 24 24 24 24 23 23 23 22 22 22 21 21 20 20 20 19 19 19 19
17 17 18 19 21 23 23 24 25 25 24 24 23 23 22 22 22 23 23 23 23 24 24 24 24 24 24 24 24 23 23 23 22 22 22 21 21 20 20 19 19 19 19 19
17 17 16 17 20 21 21 23 24 24 23 23 23 22 22 22 23 23 24 24 24 24 24 24 24 24 24 24 23 23 23 23 22 22 21 21 20 20 20 19 19 19 19 18
16 17 16 16 18 20 22 23 24 23 22 22 22 22 22 22 22 22 22 23 24 24 24 24 24 24 24 24 23 23 22 22 22 21 21 21 20 20 20 19 19 18 18 18
16 15 16 16 18 19 20 22 24 23 21 22 21 21 21 21 19 20 21 22 23 23 24 23 23 23 23 23 23 22 22 21 21 21 21 20 20 20 19 19 18 18 18 18
16 16 16 16 17 18 19 21 22 21 20 21 21 21 21 20 20 21 21 22 22 23 23 23 23 23 22 22 22 21 21 21 21 21 20 20 19 19 19 18 18 18 17 17
15 15 15 15 16 17 18 20 19 18 19 20 20 21 21 20 20 20 21 21 21 21 22 22 22 22 21 21 21 21 20 20 20 20 20 19 19 18 18 18 17 17 17 16
15 14 14 15 16 17 19 19 19 20 19 19 20 20 20 19 19 19 20 20 20 21 21 21 21 21 20 20 20 20 20 19 19 19 18 18 18 18 18 17 17 17 16 16
15 15 14 14 15 17 18 19 19 20 19 19 19 19 19 19 18 19 19 19 20 19 19 20 20 19 19 19 19 19 19 19 18 18 18 18 17 17 17 16 16 16 15 15
14 14 13 13 14 15 17 17 17 18 18 18 18 18 18 18 18 18 18 18 18 18 19 19 19 19 18 18 18 18 18 18 18 18 17 17 17 16 16 16 15 15 15 15
13 13 13 13 14 13 15 16 16 17 17 17 17 17 18 18 18 18 18 18 18 18 18 18 18 18 18 18 18 17 17 17 17 17 17 16 16 16 15 15 15 15 14 14
Wind_Speed
4 2 5 10 9 9 7 4 5 6 5 5 7 9 15 16 15 14 13 13 14 14 11 12 12 13 11 10 10 9 8 7 6 4 3 3 3 3 3 4 8 10 9 10
5 6 12 10 8 6 4 3 3 3 2 4 5 6 10 14 17 17 17 16 15 12 10 12 11 12 12 12 11 10 9 9 7 5 4 3 3 3 3 3 5 8 8 9
8 10 8 7 7 4 5 4 4 3 2 3 5 1 4 7 8 11 15 15 16 17 16 15 14 13 12 12 12 11 10 9 8 7 4 2 1 0 0 2 2 4 7 7
8 9 8 7 7 4 6 6 4 2 3 2 3 2 6 8 7 11 13 14 16 16 15 14 14 14 14 14 12 10 10 9 8 7 6 6 5 4 4 3 3 3 5 6
7 6 6 7 8 5 7 5 2 1 3 1 2 3 6 5 8 13 15 16 17 17 17 17 16 15 13 13 12 10 10 9 8 7 8 7 5 4 3 2 3 3 3 4
9 7 6 7 7 4 3 3 6 6 5 1 4 4 6 8 14 15 15 16 16 16 16 15 14 12 10 11 11 11 11 10 9 9 8 7 7 5 4 4 4 3 2 2
8 10 7 4 4 6 3 6 5 5 5 6 5 3 9 11 12 16 18 17 16 15 15 14 14 13 12 12 12 12 12 10 10 9 8 8 7 7 6 5 5 4 3 2
5 9 7 4 7 6 4 10 8 5 5 6 5 5 8 9 10 12 14 15 15 14 14 15 15 15 14 14 13 12 12 10 10 10 8 7 7 6 5 5 4 5 4 4
7 8 8 7 6 7 4 5 10 8 3 1 6 6 8 2 4 7 11 13 14 15 15 15 14 14 13 14 13 14 13 11 10 10 9 7 7 6 6 5 5 4 3 3
8 6 9 7 3 2 8 8 7 6 5 3 5 5 5 4 5 8 11 13 12 13 13 13 13 14 13 13 12 12 12 12 10 10 9 8 7 7 6 5 5 5 4 3
6 6 8 4 3 5 1 3 5 6 6 7 4 7 7 9 9 11 12 13 14 13 13 13 12 12 11 10 11 11 12 11 10 10 8 7 7 7 6 5 5 5 4 4
2 5 6 9 7 6 6 6 7 5 4 6 5 8 7 6 8 10 12 12 13 14 14 13 11 10 9 10 10 11 11 11 10 10 8 8 7 7 6 6 6 5 5 4
1 5 1 8 8 5 0 2 5 6 5 5 5 7 4 2 5 8 11 12 12 12 11 10 10 10 10 10 10 10 11 11 10 10 9 8 8 7 7 7 6 5 5 4
3 4 6 9 8 4 4 4 1 5 4 4 7 6 3 2 5 6 9 12 13 12 12 11 9 9 9 9 9 10 10 10 11 10 10 10 9 8 8 6 6 5 5 5
5 2 1 4 5 3 3 5 3 3 7 7 8 7 7 7 8 8 9 10 10 10 10 10 9 7 8 8 7 8 9 9 10 10 10 10 8 8 7 6 5 5 4 5
5 3 3 4 5 4 4 5 4 3 3 4 4 4 5 5 5 7 9 11 10 10 10 11 11 10 10 10 9 8 8 9 10 11 10 9 8 7 7 6 6 5 4 4
2 4 3 3 6 5 4 3 1 2 2 3 4 6 2 3 5 8 10 11 11 10 9 10 9 10 10 10 9 9 9 9 9 9 9 8 8 7 6 7 6 6 5 5
3 2 2 1 3 5 8 4 0 0 2 0 1 3 4 5 4 5 7 9 8 7 8 8 8 7 7 7 7 7 8 9 10 9 9 8 8 7 5 5 6 5 5 5
7 6 2 2 2 6 7 5 3 2 5 4 1 1 3 5 6 4 2 3 7 7 6 6 6 6 6 7 8 8 7 8 8 9 9 9 9 8 8 7 5 4 4 4
4 5 4 3 2 6 6 7 5 1 4 5 2 4 3 5 4 3 2 2 4 4 5 5 4 5 5 5 7 8 7 7 7 8 8 9 9 9 8 7 6 4 4 4
4 2 3 4 5 6 5 8 6 1 6 6 1 3 2 2 5 6 3 3 4 4 5 5 6 5 4 4 7 7 6 6 5 5 7 7 8 8 7 6 5 4 4 5
2 1 2 3 4 7 6 5 1 5 5 3 3 2 1 3 5 4 4 4 5 5 5 6 6 4 2 3 6 6 4 4 4 5 6 7 7 6 6 6 5 4 5 5
2 5 4 5 7 6 3 2 4 2 2 3 2 1 4 5 4 5 5 5 5 5 5 5 6 5 3 3 5 6 3 3 5 6 5 5 5 5 5 6 5 4 4 4
4 1 0 2 4 4 3 3 3 3 2 3 1 3 4 5 5 5 5 5 5 5 4 5 6 5 3 2 4 5 4 5 6 7 6 6 6 5 4 4 4 4 3 4
5 2 1 3 5 7 7 7 7 6 5 5 2 2 3 6 6 5 4 4 4 4 4 5 5 4 3 3 4 4 4 5 6 6 6 5 5 6 5 4 3 3 2 3
3 3 3 5 5 2 6 7 8 7 5 3 1 2 2 3 5 6 4 3 4 4 4 5 4 3 3 3 4 3 4 5 6 5 5 5 5 5 5 5 4 6 4 4
Wind_Direction
327 69 247 243 225 218 227 250 256 248 207 159 163 163 173 177 177 176 179 179 178 182 180 170 169 167 164 165 166 165 166 177 168 166 174 176 196 203 202 204 201 196 195 190
349 274 245 243 250 246 241 260 274 285 174 145 157 172 182 181 184 180 181 182 181 177 172 174 172 171 172 174 175 173 173 178 180 182 181 179 180 201 204 210 201 199 197 193
228 248 264 261 256 257 276 226 217 221 16 46 105 42 200 204 190 183 185 183 180 180 180 181 179 179 177 181 182 183 181 181 186 181 167 161 136 87 201 212 205 204 194 193
246 256 269 265 259 240 268 242 205 173 98 275 130 193 243 203 200 197 190 186 186 185 181 183 182 183 186 188 184 181 179 179 183 176 173 178 186 197 213 205 204 209 199 198
261 269 274 263 251 232 234 234 192 144 128 49 9 142 264 195 202 210 198 194 193 187 182 184 185 187 188 184 181 181 176 180 184 182 180 183 193 199 203 196 195 206 209 209
254 266 238 236 262 250 230 42 27 47 71 351 251 168 250 208 203 203 202 200 194 186 182 183 184 179 180 179 179 178 178 185 184 184 184 187 192 191 187 197 200 210 216 227
297 296 282 255 290 317 67 82 30 356 4 252 256 186 240 227 206 196 194 195 189 183 178 176 176 177 180 180 180 179 179 185 185 185 189 193 194 190 194 197 200 198 204 218
235 279 271 242 202 216 205 139 158 198 224 272 309 232 252 234 204 192 187 182 177 177 176 178 180 182 183 182 179 178 182 185 185 188 192 192 190 189 193 196 192 195 199 210
198 249 276 262 226 173 189 185 173 150 178 261 284 287 309 352 165 163 164 163 169 174 176 180 179 181 181 181 183 182 183 185 187 189 190 191 190 189 193 194 190 194 203 212
178 240 278 282 319 268 177 167 103 122 155 241 288 275 241 234 185 161 155 160 165 171 174 177 179 179 182 185 182 179 183 186 188 187 190 195 192 192 191 188 190 192 201 206
176 197 280 323 216 227 187 121 120 130 154 161 228 267 235 201 185 168 161 161 161 165 173 181 178 176 176 173 175 180 184 184 186 187 188 183 182 183 179 180 187 190 197 198
192 157 244 260 255 221 181 181 149 157 219 171 175 259 268 196 169 154 157 159 159 164 171 175 169 163 166 172 175 179 183 183 185 181 177 177 178 178 180 184 189 187 192 197
83 117 232 318 329 348 202 184 155 143 134 156 169 261 313 117 135 147 150 158 161 162 164 160 159 165 173 179 180 179 183 184 181 175 175 176 180 182 187 190 189 187 187 190
84 107 167 208 228 251 277 287 181 126 155 209 215 235 287 127 144 158 160 161 162 163 163 160 164 167 172 181 183 184 187 183 178 175 178 183 189 189 189 187 184 182 178 177
65 94 206 239 249 250 273 291 286 211 196 193 225 214 224 194 175 170 158 152 152 160 163 165 167 177 174 173 183 196 192 184 178 176 183 190 188 182 176 175 177 176 176 177
39 52 13 337 340 339 319 310 302 281 232 204 190 238 238 200 159 154 151 150 156 166 177 178 175 182 181 178 185 195 197 186 177 180 186 182 176 176 177 173 166 171 175 166
19 55 35 303 319 1 298 274 292 309 305 189 205 235 214 135 162 169 161 154 157 163 172 181 181 183 183 181 179 184 187 179 177 182 179 174 170 171 180 173 168 175 179 168
155 98 138 263 12 240 243 270 71 353 318 344 217 224 171 164 172 164 152 154 162 163 160 164 173 177 175 173 168 167 167 166 168 168 167 165 166 163 161 163 175 178 171 167
162 149 141 137 224 274 293 316 340 307 300 319 62 78 97 110 80 65 60 139 162 165 163 162 163 162 164 167 166 154 158 161 162 167 171 167 162 157 160 170 172 171 164 161
73 116 137 158 193 237 266 303 309 67 283 313 101 129 141 104 101 219 270 100 118 123 136 138 126 120 134 158 151 148 153 154 167 175 173 166 162 162 165 168 169 162 155 156
15 30 159 196 222 253 281 316 8 82 256 310 300 181 173 182 184 189 168 113 118 110 102 110 115 118 145 155 149 149 150 164 175 165 159 160 162 160 158 159 160 153 151 148
190 183 207 176 209 251 311 7 38 248 283 303 308 270 130 114 118 124 124 115 104 99 99 102 105 105 111 131 136 135 154 167 148 139 143 151 154 154 151 149 153 157 156 156
188 189 200 199 221 242 276 243 248 241 296 303 338 15 116 116 123 125 128 125 115 112 112 107 106 98 89 102 130 133 147 135 127 125 129 131 136 141 143 146 149 148 150 153
298 335 110 294 270 293 322 340 337 354 333 313 267 136 126 128 127 117 120 125 117 111 111 103 104 99 92 103 111 126 139 138 136 132 136 136 132 126 121 121 130 138 150 156
275 328 330 286 301 337 349 352 343 341 349 349 344 106 123 138 132 126 126 127 124 124 120 115 117 118 117 121 115 128 136 132 130 131 133 133 129 130 120 110 108 133 151 175
245 208 202 244 257 253 291 318 340 334 326 334 44 66 68 117 127 122 126 134 135 134 131 127 128 128 133 134 126 128 139 135 135 137 142 146 139 135 139 133 98 56 74 79
Height
1505 1512 1518 1513 1510 1511 1512 1515 1516 1509 1502 1507 1512 1514 1514 1516 1518 1521 1524 1526 1528 1530 1533 1536 1538 1540 1541 1543 1544 1545 1546 1547 1548 1549 1550 1551 1552 1553 1554 1555 1556 1557 1558 1559
1512 1515 1505 1501 1502 1504 1507 1514 1514 1506 1500 1506 1512 1514 1511 1512 1513 1516 1519 1522 1525 1528 1531 1533 1535 1537 1539 1540 1542 1543 1544 1546 1547 1548 1549 1550 1551 1551 1552 1553 1554 1555 1556 1557
1514 1506 1497 1499 1502 1505 1507 1511 1511 1510 1506 1506 1513 1522 1518 1514 1514 1516 1517 1518 1521 1524 1526 1530 1532 1534 1536 1538 1540 1541 1542 1544 1545 1546 1547 1549 1550 1550 1551 1551 1551 1553 1554 1555
1506 1498 1497 1499 1501 1501 1511 1499 1499 1503 1516 1527 1520 1541 1524 1516 1515 1514 1515 1516 1518 1520 1523 1526 1529 1532 1533 1536 1538 1540 1541 1542 1543 1545 1546 1546 1547 1548 1549 1550 1550 1551 1552 1553
1505 1497 1498 1500 1496 1495 1499 1493 1496 1501 1513 1526 1524 1536 1530 1517 1518 1512 1510 1512 1513 1516 1519 1523 1525 1528 1531 1534 1536 1538 1539 1540 1542 1543 1544 1545 1546 1547 1548 1549 1549 1549 1550 1551
1497 1491 1492 1492 1488 1488 1489 1495 1502 1512 1524 1540 1527 1533 1532 1517 1508 1504 1505 1507 1509 1513 1516 1520 1524 1527 1530 1532 1534 1535 1537 1538 1540 1541 1542 1543 1544 1546 1546 1547 1547 1548 1548 1549
1502 1493 1487 1487 1491 1490 1493 1516 1539 1542 1551 1546 1524 1526 1523 1498 1493 1494 1497 1501 1505 1509 1513 1517 1521 1524 1527 1529 1531 1533 1535 1536 1538 1539 1541 1542 1543 1544 1545 1545 1546 1546 1546 1547
1515 1513 1490 1484 1489 1497 1497 1512 1541 1552 1554 1544 1525 1525 1506 1486 1485 1487 1492 1497 1502 1507 1511 1514 1517 1521 1524 1527 1529 1531 1533 1535 1536 1538 1539 1540 1541 1542 1543 1544 1544 1544 1545 1545
1512 1510 1485 1481 1480 1486 1497 1506 1509 1530 1536 1543 1534 1516 1497 1484 1485 1487 1491 1496 1500 1503 1507 1511 1514 1518 1522 1524 1527 1529 1531 1533 1534 1536 1537 1538 1539 1540 1541 1542 1542 1543 1543 1543
1497 1505 1490 1481 1479 1480 1485 1493 1515 1530 1545 1550 1536 1525 1515 1496 1491 1489 1491 1493 1496 1500 1505 1508 1512 1515 1519 1522 1524 1527 1529 1531 1532 1534 1535 1537 1538 1539 1539 1540 1540 1541 1541 1541
1490 1503 1497 1489 1489 1490 1489 1495 1508 1525 1530 1545 1546 1529 1492 1488 1485 1486 1488 1490 1493 1498 1502 1506 1509 1512 1516 1520 1523 1525 1527 1529 1531 1532 1534 1535 1536 1537 1538 1538 1538 1538 1539 1538
1489 1500 1507 1495 1481 1477 1482 1490 1504 1522 1527 1532 1537 1523 1481 1481 1480 1482 1486 1489 1492 1495 1499 1502 1507 1510 1514 1517 1520 1523 1525 1527 1529 1530 1532 1533 1534 1535 1536 1536 1537 1537 1537 1536
1488 1502 1515 1510 1500 1487 1486 1487 1493 1505 1518 1529 1533 1516 1481 1481 1482 1483 1486 1488 1491 1494 1497 1501 1505 1507 1511 1514 1517 1519 1521 1524 1526 1528 1530 1530 1531 1532 1533 1534 1534 1534 1534 1534
1484 1500 1510 1517 1509 1497 1492 1487 1488 1501 1518 1521 1516 1505 1489 1486 1485 1485 1486 1487 1489 1492 1495 1498 1502 1504 1508 1511 1514 1516 1518 1520 1523 1525 1526 1527 1528 1529 1530 1531 1532 1532 1532 1532
1487 1501 1499 1496 1490 1486 1486 1485 1485 1492 1498 1506 1502 1498 1490 1484 1484 1484 1485 1487 1489 1492 1495 1497 1500 1503 1505 1508 1511 1512 1515 1517 1519 1521 1523 1524 1525 1526 1527 1528 1529 1530 1530 1530
1493 1501 1499 1496 1488 1485 1485 1482 1481 1484 1486 1490 1490 1491 1481 1480 1480 1482 1482 1485 1488 1491 1494 1496 1498 1500 1502 1503 1505 1508 1512 1514 1516 1518 1519 1521 1522 1524 1525 1525 1526 1527 1528 1528
1498 1503 1508 1509 1495 1490 1497 1485 1483 1484 1483 1484 1491 1487 1479 1480 1479 1479 1480 1482 1485 1487 1490 1493 1494 1497 1498 1500 1501 1504 1507 1510 1513 1514 1515 1517 1519 1521 1522 1523 1523 1524 1524 1525
1497 1504 1511 1512 1504 1511 1496 1478 1477 1480 1480 1478 1479 1478 1477 1477 1476 1476 1478 1479 1481 1483 1486 1489 1491 1492 1493 1496 1498 1500 1502 1505 1508 1509 1511 1512 1515 1517 1519 1519 1520 1521 1521 1522
1489 1499 1509 1515 1515 1505 1488 1478 1477 1481 1482 1475 1476 1476 1476 1475 1475 1478 1479 1479 1479 1480 1482 1485 1487 1488 1489 1492 1494 1496 1498 1501 1503 1505 1507 1508 1511 1513 1515 1516 1517 1518 1519 1519
1488 1493 1506 1512 1513 1512 1494 1478 1473 1476 1485 1474 1474 1475 1475 1474 1481 1481 1478 1477 1478 1479 1480 1482 1484 1486 1487 1489 1491 1492 1494 1496 1498 1501 1503 1505 1507 1509 1511 1513 1514 1515 1516 1516
1499 1501 1506 1510 1510 1501 1485 1477 1473 1491 1489 1476 1474 1473 1473 1473 1475 1476 1476 1476 1477 1478 1478 1480 1482 1483 1485 1487 1489 1490 1491 1492 1495 1498 1500 1502 1503 1505 1507 1509 1510 1511 1513 1513
1502 1505 1506 1508 1510 1504 1482 1479 1484 1484 1478 1476 1473 1472 1471 1471 1472 1473 1474 1474 1475 1476 1477 1478 1479 1481 1483 1484 1486 1487 1490 1491 1493 1494 1496 1498 1500 1502 1504 1506 1507 1508 1509 1510
1498 1499 1499 1499 1497 1485 1480 1480 1479 1477 1475 1474 1472 1470 1470 1469 1470 1471 1472 1473 1474 1475 1475 1477 1478 1479 1481 1482 1484 1485 1487 1489 1491 1492 1493 1495 1498 1500 1501 1503 1504 1505 1506 1507
1493 1490 1492 1493 1486 1482 1480 1478 1477 1475 1473 1472 1471 1469 1469 1468 1469 1470 1470 1471 1471 1474 1475 1475 1477 1478 1479 1481 1482 1483 1485 1488 1489 1489 1491 1493 1495 1496 1498 1499 1501 1503 1504 1504
1493 1491 1492 1491 1487 1481 1478 1478 1477 1474 1472 1471 1470 1468 1468 1467 1467 1468 1470 1470 1470 1472 1472 1475 1476 1476 1477 1479 1480 1482 1484 1485 1486 1487 1489 1490 1493 1494 1496 1497 1499 1500 1501 1501
1491 1491 1493 1491 1486 1485 1482 1479 1477 1474 1471 1469 1468 1467 1467 1467 1466 1466 1468 1469 1470 1471 1472 1473 1474 1475 1476 1477 1478 1480 1482 1483 1484 1485 1486 1488 1490 1492 1494 1496 1497 1497 1498 1498